Terminal Aerodrome Forecast
Issued by NWS Sioux Falls, SD

Home | Current Version | Previous Version | Text Only | Print | Product List | Glossary On
Versions: 1 2 3 4 5 6 7 8 9 10 11 12 13 14 15 16 17 18 19 20 21 22 23 24 25 26
000
FTUS43 KFSD 171700
TAFSUX
TAF
KSUX 171720Z 1718/1818 21005KT P6SM SCT015 SCT035
     FM180200 17005KT P6SM SCT035 SCT100
     FM181000 17005KT 6SM -TSRA BKN060CB
     FM181200 23006KT P6SM SCT080=

USA.gov is the U.S. government's official web portal to all federal, state and local government web resources and services.